ECS 2

operational
NORAD ID: 15158 Int'l Des: 1984-081 Owner: EUTEL Country: I-EUT
HEOCIRCULAR

Über ECS 2

Beschreibung wird geladen...

Live-Position

3D-Globus wird geladen...

Nächste Überflüge

Höhenverlauf

Altitude vs Time

uPlot chart will show altitude changes over time

Zweizeiliger Elementsatz

1 15158U 84081A 26061.14937174 -.00000192 00000-0 00000-0 0 9995
2 15158 12.6156 333.6401 0008940 243.4893 302.0784 0.98797299116201
Epoch: 2. März 2026 • Age: 63 hours

Aktueller Status

Höhe 36209.5 km
Geschwindigkeit 3.06 km/s
Subsatellitenpunkt -4.46°S, 66.97°W
Startdatum 4. Aug. 1984
Alter 41.5 years
Typ other

Technische Details

Klassifizierung Payload
Masse 567.00 kg
Trockenmasse 450.00 kg
Gesamtmasse 1037.00 kg
Länge 2.40 m
Durchmesser 2.20 m
Spannweite 13.80 m
Form Box + 2 Pan
Hersteller BAES
Bus-Typ ECS
Phasenstatus Renamed
Besitzer/Staat EUTEL/I-EUT

Große Konstellationen

Loading constellations...